MAS454 VCBI-VRMM

Flight info

Callsign MAS454
Flight time 1h 11m
Altitude 40000
Route LALUM DCT HOKEY HOKEY1B
Aircraft A333/H-SDE3GHIJ2J3J5M1RVWXY/LB2D1

Departure

Time 2026-04-23 18:51
Airport Bandaranaike International Colombo Airport (VCBI)

Arrival

Time 2026-04-23 20:02
Airport Velana International Airport (VRMM)
Time Latitude Longitude Altitude Speed Heading
2026-04-23 18:15 7.17381 79.88259 37 ft 0 kts 37°
2026-04-23 18:42 7.17369 79.88250 36 ft 3 kts 25°
2026-04-23 18:42 7.17349 79.88246 35 ft 3 kts 338°
2026-04-23 18:42 7.17336 79.88254 34 ft 0 kts 311°
2026-04-23 18:45 7.17338 79.88252 34 ft 1 kts 316°
2026-04-23 18:45 7.17351 79.88233 35 ft 6 kts 299°
2026-04-23 18:45 7.17364 79.88176 37 ft 11 kts 263°
2026-04-23 18:46 7.17385 79.88095 37 ft 14 kts 315°
2026-04-23 18:46 7.17455 79.88086 37 ft 11 kts 27°
2026-04-23 18:46 7.17531 79.88139 37 ft 15 kts 37°
2026-04-23 18:46 7.17631 79.88213 38 ft 19 kts 36°
2026-04-23 18:47 7.17745 79.88301 38 ft 23 kts 38°
2026-04-23 18:47 7.17877 79.88408 38 ft 26 kts 38°
2026-04-23 18:47 7.18027 79.88523 38 ft 28 kts 37°
2026-04-23 18:47 7.18191 79.88649 38 ft 31 kts 37°
2026-04-23 18:48 7.18366 79.88784 39 ft 33 kts 38°
2026-04-23 18:48 7.18546 79.88928 39 ft 33 kts 40°
2026-04-23 18:48 7.18717 79.89071 39 ft 31 kts 38°
2026-04-23 18:48 7.18885 79.89200 39 ft 30 kts 38°
2026-04-23 18:49 7.19037 79.89316 39 ft 24 kts 37°
2026-04-23 18:49 7.19170 79.89412 39 ft 20 kts 21°
2026-04-23 18:49 7.19263 79.89354 39 ft 16 kts 307°
2026-04-23 18:49 7.19258 79.89261 39 ft 14 kts 229°
2026-04-23 18:50 7.19232 79.89239 38 ft 0 kts 219°
2026-04-23 18:50 7.19117 79.89148 40 ft 59 kts 217°
2026-04-23 18:50 7.18573 79.88739 40 ft 134 kts 216°
2026-04-23 18:50 7.17664 79.88063 271 ft 179 kts 216°
2026-04-23 18:51 7.16690 79.87291 1114 ft 171 kts 217°
2026-04-23 18:51 7.15729 79.86546 1642 ft 183 kts 216°
2026-04-23 18:51 7.14643 79.85714 1909 ft 210 kts 216°
2026-04-23 18:51 7.13407 79.84766 2159 ft 236 kts 217°
2026-04-23 18:52 7.12049 79.83722 2606 ft 253 kts 217°
2026-04-23 18:52 7.10628 79.82630 3242 ft 261 kts 217°
2026-04-23 18:52 7.09171 79.81510 3945 ft 266 kts 217°
2026-04-23 18:52 7.07683 79.80366 4653 ft 273 kts 216°
2026-04-23 18:53 7.06156 79.79192 5344 ft 279 kts 216°
2026-04-23 18:53 7.04597 79.77995 6105 ft 283 kts 216°
2026-04-23 18:53 7.03013 79.76779 6825 ft 288 kts 216°
2026-04-23 18:53 7.01418 79.75554 7658 ft 289 kts 216°
2026-04-23 18:54 6.99803 79.74314 8418 ft 295 kts 217°
2026-04-23 18:54 6.98160 79.73053 9207 ft 299 kts 217°
2026-04-23 18:54 6.96494 79.71773 9995 ft 303 kts 217°
2026-04-23 18:54 6.94782 79.70459 10462 ft 319 kts 217°
2026-04-23 18:55 6.92960 79.69062 10764 ft 339 kts 217°
2026-04-23 18:55 6.91048 79.67594 11203 ft 351 kts 217°
2026-04-23 18:55 6.89093 79.66084 11837 ft 357 kts 218°
2026-04-23 18:55 6.87288 79.64346 12515 ft 361 kts 230°
2026-04-23 18:56 6.86299 79.62993 12982 ft 364 kts 235°
2026-04-23 18:56 6.84300 79.60223 13851 ft 369 kts 232°
2026-04-23 18:56 6.82722 79.58169 14401 ft 373 kts 232°
2026-04-23 18:56 6.81112 79.56103 14984 ft 377 kts 231°
2026-04-23 18:57 6.79484 79.54024 15573 ft 380 kts 231°
2026-04-23 18:57 6.77839 79.51930 16145 ft 383 kts 231°
2026-04-23 18:57 6.76178 79.49816 16694 ft 387 kts 231°
2026-04-23 18:57 6.74501 79.47683 17229 ft 390 kts 231°
2026-04-23 18:58 6.72830 79.45560 17765 ft 394 kts 231°
2026-04-23 18:58 6.71123 79.43390 18316 ft 396 kts 231°
2026-04-23 18:58 6.69407 79.41210 18812 ft 398 kts 231°
2026-04-23 18:58 6.67684 79.39021 19322 ft 400 kts 231°
2026-04-23 18:59 6.65956 79.36825 19796 ft 402 kts 231°
2026-04-23 18:59 6.64210 79.34609 20235 ft 405 kts 231°
2026-04-23 18:59 6.62453 79.32378 20692 ft 408 kts 231°
2026-04-23 18:59 6.60690 79.30140 21213 ft 408 kts 231°
2026-04-23 19:00 6.58921 79.27894 21680 ft 411 kts 231°
2026-04-23 19:00 6.57139 79.25632 22120 ft 414 kts 231°
2026-04-23 19:00 6.55350 79.23362 22622 ft 415 kts 231°
2026-04-23 19:00 6.53556 79.21084 23097 ft 417 kts 231°
2026-04-23 19:01 6.51751 79.18794 23529 ft 419 kts 231°
2026-04-23 19:01 6.49936 79.16491 23898 ft 421 kts 231°
2026-04-23 19:01 6.48114 79.14181 24290 ft 422 kts 231°
2026-04-23 19:01 6.46288 79.11865 24679 ft 423 kts 231°
2026-04-23 19:02 6.45075 79.10327 24957 ft 424 kts 231°
2026-04-23 19:02 6.42616 79.07208 25401 ft 427 kts 231°
2026-04-23 19:02 6.40765 79.04862 25763 ft 429 kts 230°
2026-04-23 19:02 6.38908 79.02508 26118 ft 431 kts 230°
2026-04-23 19:03 6.37042 79.00144 26467 ft 433 kts 230°
2026-04-23 19:03 6.35167 78.97768 26811 ft 435 kts 230°
2026-04-23 19:03 6.33285 78.95382 27116 ft 437 kts 230°
2026-04-23 19:03 6.31386 78.92977 27440 ft 440 kts 230°
2026-04-23 19:04 6.29505 78.90547 27773 ft 442 kts 232°
2026-04-23 19:04 6.27886 78.87911 28115 ft 446 kts 240°
2026-04-23 19:04 6.26523 78.85105 28432 ft 448 kts 243°
2026-04-23 19:04 6.25211 78.82253 28758 ft 450 kts 243°
2026-04-23 19:05 6.23901 78.79388 29062 ft 452 kts 243°
2026-04-23 19:05 6.22581 78.76506 29358 ft 454 kts 243°
2026-04-23 19:05 6.21255 78.73620 29644 ft 456 kts 243°
2026-04-23 19:05 6.19935 78.70753 29933 ft 458 kts 243°
2026-04-23 19:06 6.18594 78.67841 30178 ft 460 kts 242°
2026-04-23 19:06 6.17248 78.64920 30457 ft 461 kts 242°
2026-04-23 19:06 6.15899 78.61997 30712 ft 462 kts 242°
2026-04-23 19:06 6.14545 78.59060 30946 ft 463 kts 242°
2026-04-23 19:07 6.13213 78.56109 31189 ft 465 kts 243°
2026-04-23 19:07 6.11930 78.53114 31428 ft 467 kts 244°
2026-04-23 19:07 6.10675 78.50101 31656 ft 468 kts 244°
2026-04-23 19:07 6.09427 78.47074 31877 ft 470 kts 245°
2026-04-23 19:08 6.08177 78.44038 32124 ft 471 kts 244°
2026-04-23 19:08 6.06925 78.41009 32447 ft 470 kts 244°
2026-04-23 19:08 6.05670 78.37983 32802 ft 468 kts 244°
2026-04-23 19:08 6.04417 78.34974 33148 ft 466 kts 244°
2026-04-23 19:09 6.03166 78.31974 33492 ft 465 kts 244°
2026-04-23 19:09 6.01916 78.28985 33814 ft 463 kts 244°
2026-04-23 19:09 6.00670 78.26006 34112 ft 462 kts 244°
2026-04-23 19:09 5.99427 78.23036 34416 ft 460 kts 244°
2026-04-23 19:10 5.98189 78.20076 34726 ft 459 kts 244°
2026-04-23 19:10 5.96957 78.17131 35031 ft 457 kts 244°
2026-04-23 19:10 5.95727 78.14192 35326 ft 455 kts 244°
2026-04-23 19:10 5.94501 78.11263 35552 ft 455 kts 244°
2026-04-23 19:11 5.93275 78.08335 35807 ft 454 kts 244°
2026-04-23 19:11 5.92049 78.05409 36089 ft 453 kts 244°
2026-04-23 19:11 5.90830 78.02498 36378 ft 452 kts 244°
2026-04-23 19:11 5.89614 77.99594 36647 ft 450 kts 245°
2026-04-23 19:12 5.88811 77.97676 36827 ft 449 kts 245°
2026-04-23 19:12 5.87194 77.93817 37244 ft 446 kts 244°
2026-04-23 19:12 5.85997 77.90958 37619 ft 442 kts 244°
2026-04-23 19:12 5.84807 77.88118 37913 ft 440 kts 244°
2026-04-23 19:13 5.83622 77.85290 38164 ft 439 kts 244°
2026-04-23 19:13 5.82438 77.82466 38377 ft 439 kts 244°
2026-04-23 19:13 5.81270 77.79683 38593 ft 438 kts 245°
2026-04-23 19:13 5.80091 77.76870 38773 ft 437 kts 245°
2026-04-23 19:14 5.78912 77.74060 38964 ft 436 kts 245°
2026-04-23 19:14 5.77737 77.71258 39160 ft 435 kts 245°
2026-04-23 19:14 5.76565 77.68465 39342 ft 434 kts 245°
2026-04-23 19:14 5.75395 77.65677 39527 ft 433 kts 245°
2026-04-23 19:15 5.74228 77.62896 39709 ft 432 kts 245°
2026-04-23 19:15 5.73063 77.60119 39825 ft 433 kts 245°
2026-04-23 19:15 5.71892 77.57331 39834 ft 434 kts 245°
2026-04-23 19:16 5.69551 77.51755 39836 ft 432 kts 245°
2026-04-23 19:16 5.67217 77.46197 39838 ft 432 kts 245°
2026-04-23 19:17 5.63714 77.37860 39837 ft 432 kts 245°
2026-04-23 19:17 5.61377 77.32302 39839 ft 432 kts 245°
2026-04-23 19:18 5.59042 77.26747 39836 ft 432 kts 245°
2026-04-23 19:18 5.56705 77.21190 39839 ft 432 kts 245°
2026-04-23 19:19 5.53232 77.12836 39838 ft 433 kts 245°
2026-04-23 19:20 5.50087 77.05437 39835 ft 433 kts 245°
2026-04-23 19:20 5.47737 76.99876 39838 ft 433 kts 245°
2026-04-23 19:21 5.44221 76.91535 39840 ft 433 kts 245°
2026-04-23 19:22 5.41876 76.85971 39846 ft 433 kts 245°
2026-04-23 19:22 5.38354 76.77618 39840 ft 433 kts 245°
2026-04-23 19:23 5.36007 76.72051 39842 ft 433 kts 245°
2026-04-23 19:24 5.32485 76.63702 39840 ft 433 kts 245°
2026-04-23 19:24 5.28962 76.55356 39838 ft 433 kts 245°
2026-04-23 19:25 5.24266 76.44232 39841 ft 432 kts 245°
2026-04-23 19:26 5.20749 76.35908 39835 ft 432 kts 245°
2026-04-23 19:27 5.14879 76.22023 39840 ft 433 kts 245°
2026-04-23 19:28 5.10505 76.11338 39844 ft 434 kts 249°
2026-04-23 19:29 5.07817 76.02659 39845 ft 434 kts 250°
2026-04-23 19:30 5.05155 75.93975 39843 ft 434 kts 250°
2026-04-23 19:31 5.02486 75.85291 39837 ft 434 kts 250°
2026-04-23 19:31 5.00706 75.79504 39848 ft 434 kts 250°
2026-04-23 19:32 4.98926 75.73718 39836 ft 434 kts 250°
2026-04-23 19:32 4.97143 75.67926 39835 ft 435 kts 250°
2026-04-23 19:32 4.96247 75.65018 39666 ft 440 kts 250°
2026-04-23 19:33 4.95337 75.62066 39103 ft 446 kts 250°
2026-04-23 19:33 4.94417 75.59078 38315 ft 452 kts 250°
2026-04-23 19:33 4.92539 75.52984 36673 ft 461 kts 250°
2026-04-23 19:34 4.91604 75.49950 36070 ft 461 kts 249°
2026-04-23 19:34 4.90647 75.46841 35503 ft 460 kts 249°
2026-04-23 19:34 4.88768 75.40743 34278 ft 462 kts 249°
2026-04-23 19:35 4.87817 75.37664 33621 ft 463 kts 249°
2026-04-23 19:35 4.86864 75.34580 32919 ft 464 kts 249°
2026-04-23 19:35 4.85910 75.31492 32253 ft 464 kts 249°
2026-04-23 19:35 4.84956 75.28404 31612 ft 464 kts 249°
2026-04-23 19:36 4.84006 75.25328 31184 ft 459 kts 249°
2026-04-23 19:36 4.83067 75.22286 30725 ft 455 kts 249°
2026-04-23 19:36 4.82135 75.19270 30250 ft 452 kts 249°
2026-04-23 19:36 4.81209 75.16274 29768 ft 448 kts 249°
2026-04-23 19:37 4.80288 75.13298 29238 ft 445 kts 250°
2026-04-23 19:37 4.79376 75.10348 28776 ft 440 kts 250°
2026-04-23 19:37 4.78473 75.07430 28304 ft 436 kts 250°
2026-04-23 19:37 4.77578 75.04536 27823 ft 433 kts 250°
2026-04-23 19:38 4.76689 75.01666 27359 ft 429 kts 250°
2026-04-23 19:38 4.75810 74.98824 26917 ft 425 kts 250°
2026-04-23 19:38 4.74936 74.96003 26448 ft 423 kts 251°
2026-04-23 19:38 4.74067 74.93196 25973 ft 420 kts 251°
2026-04-23 19:39 4.73203 74.90407 25511 ft 418 kts 251°
2026-04-23 19:39 4.72344 74.87633 25055 ft 415 kts 251°
2026-04-23 19:39 4.71489 74.84876 24615 ft 413 kts 251°
2026-04-23 19:39 4.70637 74.82126 24132 ft 412 kts 252°
2026-04-23 19:40 4.69790 74.79392 23682 ft 411 kts 252°
2026-04-23 19:40 4.68944 74.76662 23212 ft 409 kts 252°
2026-04-23 19:40 4.68110 74.73969 22949 ft 400 kts 252°
2026-04-23 19:40 4.67296 74.71344 22763 ft 389 kts 252°
2026-04-23 19:41 4.66504 74.68787 22602 ft 379 kts 252°
2026-04-23 19:41 4.65734 74.66304 22450 ft 368 kts 252°
2026-04-23 19:41 4.64983 74.63882 22304 ft 359 kts 252°
2026-04-23 19:41 4.64253 74.61528 22164 ft 349 kts 252°
2026-04-23 19:42 4.63542 74.59237 22032 ft 340 kts 252°
2026-04-23 19:42 4.62858 74.57035 21909 ft 331 kts 252°
2026-04-23 19:42 4.62175 74.54833 21757 ft 323 kts 252°
2026-04-23 19:42 4.61513 74.52700 21504 ft 319 kts 252°
2026-04-23 19:43 4.60866 74.50617 21192 ft 317 kts 253°
2026-04-23 19:43 4.60212 74.48509 20896 ft 316 kts 253°
2026-04-23 19:43 4.59562 74.46416 20601 ft 314 kts 253°
2026-04-23 19:43 4.58916 74.44333 20279 ft 313 kts 253°
2026-04-23 19:44 4.58270 74.42253 19978 ft 312 kts 253°
2026-04-23 19:44 4.57627 74.40184 19684 ft 310 kts 253°
2026-04-23 19:44 4.56989 74.38127 19405 ft 309 kts 253°
2026-04-23 19:44 4.56352 74.36076 19111 ft 307 kts 253°
2026-04-23 19:45 4.55718 74.34036 18804 ft 307 kts 253°
2026-04-23 19:45 4.55086 74.32001 18506 ft 306 kts 253°
2026-04-23 19:45 4.54454 74.29965 18221 ft 305 kts 254°
2026-04-23 19:45 4.53900 74.27920 17905 ft 303 kts 257°
2026-04-23 19:46 4.53406 74.25870 17582 ft 302 kts 258°
2026-04-23 19:46 4.52925 74.23827 17281 ft 300 kts 258°
2026-04-23 19:46 4.52448 74.21797 16979 ft 298 kts 258°
2026-04-23 19:46 4.51974 74.19779 16679 ft 297 kts 258°
2026-04-23 19:47 4.51660 74.18446 16474 ft 296 kts 258°
2026-04-23 19:47 4.51029 74.15771 16079 ft 294 kts 258°
2026-04-23 19:47 4.50560 74.13782 15782 ft 293 kts 258°
2026-04-23 19:47 4.50094 74.11804 15495 ft 291 kts 258°
2026-04-23 19:48 4.49628 74.09828 15094 ft 294 kts 258°
2026-04-23 19:48 4.49158 74.07836 14844 ft 291 kts 258°
2026-04-23 19:48 4.48698 74.05893 14736 ft 282 kts 258°
2026-04-23 19:48 4.48250 74.03998 14437 ft 282 kts 258°
2026-04-23 19:49 4.47791 74.02047 13856 ft 293 kts 258°
2026-04-23 19:49 4.47314 74.00024 13227 ft 303 kts 257°
2026-04-23 19:49 4.46822 73.97937 12582 ft 312 kts 257°
2026-04-23 19:49 4.46317 73.95803 12096 ft 315 kts 257°
2026-04-23 19:50 4.45820 73.93699 11933 ft 305 kts 257°
2026-04-23 19:50 4.45337 73.91663 11815 ft 295 kts 257°
2026-04-23 19:50 4.44870 73.89689 11569 ft 290 kts 257°
2026-04-23 19:50 4.44540 73.87700 11178 ft 288 kts 266°
2026-04-23 19:51 4.44476 73.85709 10774 ft 284 kts 270°
2026-04-23 19:51 4.44477 73.83734 10353 ft 282 kts 271°
2026-04-23 19:51 4.44485 73.81782 9944 ft 279 kts 271°
2026-04-23 19:51 4.44492 73.79844 9509 ft 277 kts 271°
2026-04-23 19:52 4.44494 73.78571 9208 ft 276 kts 271°
2026-04-23 19:52 4.44496 73.76007 8562 ft 273 kts 270°
2026-04-23 19:52 4.44494 73.74146 8088 ft 269 kts 270°
2026-04-23 19:52 4.44490 73.72283 7607 ft 266 kts 270°
2026-04-23 19:53 4.44486 73.70444 7128 ft 262 kts 270°
2026-04-23 19:53 4.44482 73.68632 6675 ft 257 kts 270°
2026-04-23 19:53 4.44478 73.66869 6333 ft 247 kts 270°
2026-04-23 19:53 4.44474 73.65207 6173 ft 231 kts 270°
2026-04-23 19:54 4.44474 73.63655 6042 ft 215 kts 270°
2026-04-23 19:54 4.44474 73.62202 5892 ft 201 kts 270°
2026-04-23 19:54 4.44474 73.60847 5780 ft 188 kts 270°
2026-04-23 19:54 4.44474 73.59566 5488 ft 185 kts 270°
2026-04-23 19:55 4.44475 73.58221 4905 ft 200 kts 270°
2026-04-23 19:55 4.44475 73.56793 4409 ft 207 kts 269°
2026-04-23 19:55 4.44399 73.55363 4073 ft 203 kts 259°
2026-04-23 19:55 4.43816 73.54152 3871 ft 190 kts 222°
2026-04-23 19:56 4.42732 73.53503 3764 ft 176 kts 200°
2026-04-23 19:56 4.41600 73.53243 3668 ft 158 kts 187°
2026-04-23 19:56 4.40555 73.53188 3458 ft 145 kts 182°
2026-04-23 19:56 4.39561 73.53178 3201 ft 140 kts 181°
2026-04-23 19:57 4.38598 73.53170 2963 ft 138 kts 181°
2026-04-23 19:57 4.37640 73.53168 2714 ft 138 kts 181°
2026-04-23 19:57 4.37005 73.53167 2569 ft 138 kts 181°
2026-04-23 19:57 4.35721 73.53163 2241 ft 137 kts 182°
2026-04-23 19:58 4.34767 73.53160 2016 ft 137 kts 182°
2026-04-23 19:58 4.33817 73.53158 1985 ft 136 kts 182°
2026-04-23 19:58 4.32866 73.53155 1899 ft 137 kts 181°
2026-04-23 19:58 4.31913 73.53152 1777 ft 137 kts 182°
2026-04-23 19:59 4.30962 73.53149 1652 ft 137 kts 181°
2026-04-23 19:59 4.30013 73.53145 1538 ft 136 kts 182°
2026-04-23 19:59 4.29069 73.53142 1409 ft 135 kts 182°
2026-04-23 19:59 4.28126 73.53138 1246 ft 136 kts 181°
2026-04-23 20:00 4.27185 73.53135 1066 ft 135 kts 181°
2026-04-23 20:00 4.26248 73.53132 932 ft 134 kts 181°
2026-04-23 20:00 4.25314 73.53128 790 ft 134 kts 181°
2026-04-23 20:00 4.24375 73.53125 542 ft 134 kts 181°
2026-04-23 20:01 4.23439 73.53122 400 ft 135 kts 182°
2026-04-23 20:01 4.22505 73.53113 239 ft 134 kts 180°
2026-04-23 20:01 4.21574 73.53115 144 ft 133 kts 182°
2026-04-23 20:01 4.20676 73.53095 24 ft 122 kts 182°
2026-04-23 20:02 4.20050 73.53092 12 ft 73 kts 180°
2026-04-23 20:02 4.19761 73.53100 12 ft 20 kts 180°
2026-04-23 20:02 4.19697 73.53051 12 ft 8 kts 254°
2026-04-23 20:02 4.19693 73.53013 12 ft 0 kts 267°
2026-04-23 20:04 4.19693 73.53008 12 ft 3 kts 267°
2026-04-23 20:04 4.19691 73.52962 13 ft 10 kts 268°
2026-04-23 20:04 4.19646 73.52911 14 ft 13 kts 189°
2026-04-23 20:05 4.19576 73.52908 14 ft 17 kts 180°
2026-04-23 20:05 4.19380 73.52909 14 ft 25 kts 179°
2026-04-23 20:05 4.19195 73.52914 15 ft 23 kts 179°
2026-04-23 20:05 4.19029 73.52918 15 ft 19 kts 179°
2026-04-23 20:06 4.18950 73.52901 15 ft 7 kts 228°
2026-04-23 20:06 4.18934 73.52859 15 ft 12 kts 262°
2026-04-23 20:06 4.18933 73.52817 15 ft 4 kts 269°
2026-04-23 20:06 4.18933 73.52813 15 ft 0 kts 269°